Regional Weather Roundup
Issued by NWS

Home | Current Version | Previous Version | Text Only | Print | Product List | Glossary On
Versions: 1 2 3 4 5 6 7 8 9 10 11 12 13 14 15 16 17 18 19 20 21 22 23 24 25 26 27 28 29 30 31 32 33 34 35 36 37 38 39 40 41 42 43 44 45 46 47 48 49 50
000
ASUS43 KOAX 272310
RWRNE

WEATHER ROUNDUP FOR NEBRASKA
NATIONAL WEATHER SERVICE OMAHA NE
500 PM CST MON FEB 27 2017

NOTES: SATELLITE DATA IS BEING USED TO AUGMENT CLOUD COVER ABOVE
       12000 FEET.
       "FAIR" INDICATES FEW OR NO CLOUDS BELOW 12,000 FEET WITH NO
       SIGNIFICANT WEATHER AND/OR OBSTRUCTIONS TO VISIBILITY.

  * THESE STATIONS DO NOT REPORT WEATHER SUCH AS RAIN...SNOW OR FOG.

NEZ001>004-019>022-054>056-280000-
NEBRASKA PANHANDLE

CITY           SKY/WX    TMP DP  RH WIND       PRES   REMARKS
SCOTTSBLUFF    CLOUDY    37  24  59 SE6       29.52F WCI  32
ALLIANCE       CLOUDY    34  27  75 SE8       29.53F WCI  27
CHADRON        CLOUDY    35  25  66 W3        29.60R
KIMBALL        CLOUDY    50  21  31 S13G20    29.51S
SIDNEY         SUNNY     53  13  20 S14       29.52F
$$

NEZ057>060-069>072-079>082-280000-
SOUTHWEST NEBRASKA

CITY           SKY/WX    TMP DP  RH WIND       PRES   REMARKS
NORTH PLATTE   SUNNY     53  24  32 S12       29.62F
IMPERIAL       SUNNY     55  17  22 SE12      29.57F
LEXINGTON      SUNNY     55  26  32 S14       29.63F
MCCOOK         SUNNY     55  21  26 S7        29.61F
OGALLALA       SUNNY     53  23  30 SE10      29.58F
$$

NEZ005>010-023>029-035>040-094-280000-
NORTH CENTRAL NEBRASKA

CITY           SKY/WX    TMP DP  RH WIND       PRES   REMARKS
VALENTINE      PTSUNNY   40  29  64 S3        29.63S
AINSWORTH      SUNNY     44  33  64 SE3       29.63F
BROKEN BOW     SUNNY     49  33  54 S9G21     29.64F
O`NEILL        SUNNY     46  31  56 SE9       29.67F
ORD            SUNNY     51  32  48 S13       29.66F
THEDFORD       SUNNY     47  31  53 S10       29.62F
$$

NEZ041-046>049-061>064-073>077-083>087-280000-
SOUTH CENTRAL NEBRASKA

CITY           SKY/WX    TMP DP  RH WIND       PRES   REMARKS
GRAND ISLAND   SUNNY     54  38  54 S12       29.68F
AURORA         SUNNY     55  38  54 S15G22    29.69S
HASTINGS       SUNNY     56  37  49 S12G21    29.68F
HEBRON         MOSUNNY   57  42  55 S14       29.70F
HOLDREGE       SUNNY     56  22  26 S14G20    29.65S
KEARNEY *      SUNNY     57  30  35 S14G21    29.66S
YORK           MOSUNNY   54  39  58 S14G21    29.70F
$$

NEZ011>018-030>034-042>045-280000-
NORTHEAST NEBRASKA

CITY           SKY/WX    TMP DP  RH WIND       PRES   REMARKS
NORFOLK        PTSUNNY   47  31  53 SE9       29.71F
ALBION         PTSUNNY   50  33  51 S12       29.70S
BLAIR          CLOUDY    53  26  35 SE16G22   29.75F
FREMONT        MOSUNNY   53  29  39 SE15      29.75S
TEKAMAH        CLOUDY    48  34  58 SE12      29.76F
WAYNE          SUNNY     44  33  66 SE7       29.73F
$$

NEZ050>053-065>068-078-088>093-280000-
SOUTHEAST NEBRASKA

CITY           SKY/WX    TMP DP  RH WIND       PRES   REMARKS
LINCOLN        MOSUNNY   54  36  50 SE13      29.76S
OMAHA EPPLEY   PTSUNNY   54  23  30 SE15      29.77S
BEATRICE       CLOUDY    56  39  52 SE10      29.73S
FALLS CITY     MOSUNNY   58  35  42 SE13      29.75F
NEBRASKA CITY  CLOUDY    54  26  34 SE10      29.77S
PLATTSMOUTH    CLOUDY    52  25  35 SE12      29.77S
$$

NEZ044-045-051>053-067-280000-
OMAHA AREA

CITY           SKY/WX    TMP DP  RH WIND       PRES   REMARKS
OMAHA EPPLEY   PTSUNNY   54  23  30 SE15      29.77S
BLAIR          CLOUDY    53  26  35 SE16G22   29.75F
FREMONT        MOSUNNY   53  29  39 SE15      29.75S
MILLARD        CLOUDY    55  32  42 SE14      29.77S
OFFUTT AFB     CLOUDY    53  28  37 S10       29.77S
PLATTSMOUTH    CLOUDY    52  25  35 SE12      29.77S
WAHOO          MOCLDY    51  33  50 SE15G22   29.75F
$$



USA.gov is the U.S. government's official web portal to all federal, state and local government web resources and services.